Temperature
22 22 21 22 25 26 25 28 33 33 33 33 33 33 31 29 28 26 27 26 23 23 23 22 22 21 21 21 20 20 20 20 20 19 19 19 19 19 19 19 19 19 19 19 18 18 19 19 19
22 21 22 25 27 24 24 28 32 33 33 33 33 32 30 29 28 27 26 25 23 23 23 22 22 21 21 21 20 20 20 20 19 19 19 19 19 19 19 19 19 19 19 19 19 19 19 19 19
22 23 25 29 29 26 26 30 33 34 34 33 32 31 30 28 27 26 25 24 23 22 22 22 22 21 21 20 20 20 20 20 19 19 19 19 19 19 19 19 19 19 19 19 19 19 19 19 19
22 25 28 30 30 31 31 33 34 34 34 33 32 30 28 27 27 26 25 24 22 21 22 22 22 21 21 20 20 20 20 19 19 19 19 19 19 19 19 19 19 19 19 19 19 19 19 19 19
24 27 30 30 30 32 33 33 33 33 33 32 31 29 27 27 26 26 25 24 23 21 22 22 22 21 21 20 20 20 20 20 19 19 19 19 19 19 19 19 19 19 19 19 19 19 19 19 19
27 30 30 30 31 32 33 33 33 32 32 31 29 28 26 26 26 26 25 25 23 22 22 22 22 21 21 21 20 20 20 20 20 20 19 19 19 19 19 19 19 19 19 19 19 19 19 19 19
28 30 30 31 32 32 33 33 33 32 30 31 29 28 26 26 26 26 26 25 24 22 22 22 22 21 21 20 20 20 20 20 20 20 20 19 19 19 19 19 19 19 19 19 19 19 19 19 19
28 30 30 32 32 32 34 33 33 31 30 30 29 28 25 25 25 26 26 25 24 22 22 21 21 21 21 20 20 20 20 20 20 20 19 19 19 19 19 19 19 19 19 19 19 19 19 19 19
29 29 30 32 32 33 33 33 32 31 30 29 29 27 25 25 25 25 26 25 24 23 22 21 20 20 20 20 20 20 20 20 20 19 19 19 19 19 19 19 19 19 19 19 19 19 19 19 19
30 30 31 33 33 33 33 32 31 30 29 27 26 25 25 25 25 26 25 25 24 23 22 22 21 20 20 20 20 20 19 19 19 19 19 19 19 18 18 18 18 18 18 19 19 19 19 19 19
31 31 32 32 32 32 32 32 30 29 26 23 24 24 25 25 25 25 25 24 23 23 22 21 21 20 20 20 20 19 19 19 19 19 19 19 18 18 18 18 18 18 18 18 18 18 18 18 18
31 32 32 32 32 32 32 31 29 26 24 24 24 24 24 25 25 24 24 23 22 22 22 21 21 20 20 20 20 19 19 19 19 19 19 18 18 18 19 18 18 18 18 18 18 18 18 18 18
32 32 32 31 31 31 31 29 28 25 23 24 24 24 24 24 24 24 23 22 22 21 21 21 21 20 20 20 20 19 19 19 19 19 18 18 18 18 18 18 18 18 18 18 18 17 18 18 18
32 31 31 30 30 30 30 28 27 25 23 23 24 24 24 24 24 23 22 22 21 21 21 21 20 20 20 20 20 19 19 19 19 19 18 18 18 18 18 18 18 18 17 17 17 18 17 17 17
31 30 29 28 28 29 29 26 25 24 24 24 24 24 23 23 23 22 22 21 21 21 20 20 20 19 19 19 19 19 19 19 18 18 18 18 18 17 17 17 17 17 17 17 17 17 17 17 17
30 29 27 27 28 27 27 23 24 24 23 24 24 23 22 22 22 22 21 21 20 20 20 20 19 19 19 19 19 19 19 18 18 18 18 17 17 17 17 17 17 17 17 17 17 17 17 17 17
29 27 26 27 28 27 25 22 23 23 23 23 23 23 22 21 21 21 20 20 20 20 19 19 19 19 18 18 18 18 18 18 18 18 18 17 17 17 17 17 17 17 16 16 16 16 16 16 16
28 28 27 27 28 26 24 21 21 22 22 23 23 22 22 21 21 20 20 20 19 19 19 19 19 18 18 18 18 18 18 18 18 18 17 17 17 16 16 16 16 16 16 16 16 16 16 16 16
31 30 28 27 28 26 24 22 22 22 23 23 23 23 22 21 21 20 20 20 19 19 19 19 18 18 18 18 18 18 18 18 18 17 17 17 16 16 16 16 16 16 16 15 15 15 15 15 15
30 29 28 28 28 27 24 23 23 23 24 23 23 23 22 21 21 21 20 20 19 19 19 19 18 18 18 18 18 18 18 18 17 17 17 17 16 16 16 15 15 15 15 15 15 15 15 15 15
30 29 28 27 28 26 24 22 22 23 24 24 24 23 23 22 21 21 21 20 20 19 19 19 18 18 18 18 17 17 17 17 17 17 17 16 16 15 15 15 15 14 14 14 14 15 15 14 15
29 30 29 28 27 24 24 22 22 23 24 24 24 24 23 23 22 22 21 21 20 20 19 19 18 18 18 17 17 17 17 16 16 16 16 16 16 15 15 14 14 14 14 14 14 14 14 14 14
30 30 28 27 26 25 25 24 23 23 24 24 24 24 24 23 23 22 22 21 21 20 19 19 18 18 17 17 17 16 16 16 16 16 16 15 15 15 15 14 14 14 13 13 13 13 13 13 13
31 28 26 24 23 22 25 25 24 24 24 25 25 24 24 24 23 22 22 21 21 20 20 19 18 18 17 16 16 16 15 15 15 15 15 15 15 15 15 14 14 13 13 13 13 13 13 13 13
29 27 23 21 20 21 25 26 25 26 27 26 25 25 24 24 23 23 22 22 21 21 20 19 18 17 17 16 16 15 15 15 15 15 14 14 14 14 14 14 14 13 13 13 12 12 12 12 12
29 28 25 24 23 24 26 26 27 28 28 27 26 25 24 24 24 23 23 22 22 21 20 19 18 17 17 16 16 15 15 15 14 14 14 14 14 14 13 13 13 12 12 12 12 12 12 12 12
29 29 29 27 26 24 26 27 27 28 28 27 26 25 25 25 24 24 23 22 22 21 20 19 18 17 16 16 15 15 15 14 14 14 14 13 13 13 13 13 12 12 12 12 12 12 12 12 12
30 30 30 28 26 25 24 25 26 27 27 27 27 27 26 26 25 25 24 23 22 21 20 19 18 17 16 16 15 16 15 14 14 13 13 13 13 13 12 12 12 12 12 12 11 11 11 11 12
29 29 29 29 28 26 23 23 27 27 28 28 28 27 27 26 26 25 24 23 21 21 20 19 18 17 16 16 15 15 14 14 13 13 13 13 12 12 12 12 12 11 11 11 11 11 11 11 11
30 29 29 27 27 28 26 26 29 29 29 29 28 27 27 26 25 24 23 22 21 21 20 19 18 17 17 16 15 15 14 14 13 13 13 12 12 12 12 12 11 11 11 11 11 11 11 11 11
Wind_Speed
12 13 11 8 6 4 8 9 6 10 10 10 10 11 18 16 12 11 12 21 25 22 20 19 18 16 15 13 13 13 13 13 13 13 13 12 12 12 11 10 10 9 10 9 10 10 10 9 9
12 13 10 7 6 2 3 8 6 8 7 6 10 14 19 16 15 15 16 21 25 21 19 18 18 16 15 14 13 13 13 13 12 12 12 12 12 11 10 10 9 8 8 8 9 9 9 8 8
14 15 8 7 9 6 5 5 5 4 5 5 9 12 12 11 13 13 17 22 23 20 19 19 18 17 15 14 13 12 12 13 12 12 11 11 11 10 9 9 8 7 7 7 7 7 8 7 6
8 10 8 10 14 9 3 5 6 4 4 5 10 11 9 10 13 16 19 23 22 20 20 19 18 16 15 13 12 12 12 12 12 11 11 10 10 9 8 8 7 7 6 6 6 6 6 6 5
11 8 12 14 15 10 6 5 5 5 3 6 12 13 12 13 17 19 20 21 20 20 19 19 18 16 15 13 12 12 11 11 11 11 10 9 9 8 7 7 6 6 6 6 6 5 5 5 4
9 10 14 14 12 7 4 4 4 5 3 7 13 15 11 14 16 18 19 19 21 22 20 19 18 16 15 13 12 11 11 10 10 9 9 9 8 7 7 6 6 5 5 5 5 5 4 4 4
12 12 17 19 13 9 5 3 4 2 2 2 10 11 10 12 14 16 16 17 20 22 19 17 16 15 14 13 12 11 10 9 9 8 8 7 7 7 7 7 7 6 5 5 5 5 5 4 5
11 12 18 18 13 9 3 2 2 2 0 2 6 10 12 14 12 14 15 16 19 19 18 16 16 15 14 13 12 11 10 9 9 8 7 7 7 8 8 9 9 8 7 6 6 5 5 6 7
12 12 15 14 9 6 6 5 3 3 1 2 8 15 17 17 15 15 14 14 14 15 15 15 15 13 13 13 14 13 11 10 9 9 8 7 7 8 9 9 10 10 8 7 7 7 6 7 9
9 12 13 10 10 10 9 7 5 4 3 5 14 18 16 15 15 14 14 15 13 12 12 12 12 9 8 9 13 10 10 11 9 8 8 7 5 4 4 8 10 10 9 8 8 8 8 9 8
10 11 11 11 10 10 12 8 4 2 3 6 8 16 13 15 13 13 13 13 12 10 10 13 11 6 5 5 7 4 5 8 6 6 7 5 3 1 0 4 6 7 8 7 7 8 7 7 6
9 10 10 11 10 11 11 7 5 6 7 9 6 10 11 12 12 11 12 13 11 8 9 11 10 6 5 4 2 3 3 4 2 5 5 3 1 1 1 0 2 4 4 4 4 5 6 5 5
10 10 9 10 10 10 7 4 2 6 11 13 11 11 10 11 12 12 12 10 10 8 9 10 9 7 5 4 2 2 2 2 2 2 3 2 1 1 0 0 1 3 4 4 3 3 3 3 4
10 10 11 10 11 8 5 3 1 5 9 11 12 10 10 11 13 13 12 10 9 8 8 9 9 7 5 3 1 1 2 2 1 2 2 1 1 1 1 1 2 3 4 2 3 2 2 2 2
9 9 9 9 9 8 3 4 2 2 6 9 10 9 10 12 13 12 11 9 8 8 8 8 9 7 5 3 1 1 1 2 1 1 3 3 3 1 1 2 2 2 3 2 3 3 2 4 4
11 7 7 9 7 5 1 3 2 2 3 6 8 9 11 11 12 12 10 8 9 10 9 6 6 7 5 3 1 1 2 1 1 2 4 3 1 0 1 2 0 1 3 3 2 3 3 3 3
9 6 7 6 4 3 3 1 4 4 2 6 8 10 11 11 12 11 9 10 10 10 9 7 7 6 4 3 1 1 1 1 1 2 3 3 2 2 1 1 1 2 2 2 4 2 2 3 4
10 5 2 3 0 1 2 3 2 5 5 7 9 10 11 10 10 10 10 10 10 9 8 7 6 6 3 2 1 0 1 1 1 2 3 3 2 2 2 2 1 2 2 2 2 4 4 4 5
11 6 4 4 2 1 4 7 7 6 6 7 9 10 10 10 10 10 9 10 10 9 8 6 6 4 2 2 1 1 1 1 0 1 4 3 1 2 1 2 2 3 3 3 4 3 4 5 4
9 7 4 5 4 1 3 4 5 2 4 7 8 10 11 11 10 10 9 9 9 8 7 6 6 4 2 3 1 0 1 2 1 1 2 1 0 1 3 2 3 4 4 5 4 3 3 5 4
7 6 4 4 3 2 4 3 2 3 4 6 9 10 11 12 12 11 10 9 9 8 7 6 6 5 3 2 1 2 1 2 2 1 0 1 1 2 3 2 3 4 5 5 4 4 4 4 5
7 5 5 6 5 2 4 2 3 5 6 7 9 10 10 10 12 11 10 9 9 8 7 7 6 4 3 2 2 4 3 3 3 2 2 2 2 3 3 3 3 3 4 6 7 4 4 4 5
6 6 7 9 6 4 5 2 5 7 7 8 9 10 11 10 10 9 9 9 8 8 8 8 6 4 2 1 2 3 4 4 4 5 5 4 4 4 4 3 1 2 3 5 6 6 5 5 5
6 5 7 9 7 5 7 3 5 7 8 9 10 10 10 10 10 9 8 9 7 7 7 7 7 5 2 0 1 2 4 5 6 6 5 4 4 3 3 2 1 2 3 5 5 6 7 6 6
5 4 2 2 1 6 8 2 6 9 10 11 12 11 10 10 10 10 9 9 7 6 6 6 8 5 2 1 1 2 3 5 6 5 4 4 4 4 4 5 4 4 4 5 6 6 7 7 7
7 5 4 5 3 4 5 4 8 10 10 10 12 12 10 11 11 11 10 9 8 7 6 5 7 4 2 0 1 1 2 4 4 5 6 6 5 4 4 4 4 5 5 7 6 6 7 7 6
7 6 6 6 6 2 1 6 12 11 11 11 12 14 13 12 12 11 10 9 8 7 6 6 6 4 1 1 0 3 3 3 4 5 5 5 4 6 6 6 6 6 6 7 7 6 7 7 7
8 10 6 5 4 2 2 1 7 11 12 12 11 12 13 12 11 10 9 8 8 7 6 6 5 3 1 2 3 2 2 3 4 5 6 6 5 6 6 6 7 7 7 7 7 7 7 7 7
6 7 6 6 6 4 1 2 6 11 11 12 12 12 12 11 10 9 9 8 8 7 7 6 5 4 4 3 2 1 3 4 5 5 6 6 5 6 6 7 7 7 7 7 7 7 8 8 8
8 8 6 5 7 5 2 3 7 8 11 11 11 11 10 9 9 10 10 9 7 6 5 5 3 3 3 3 2 2 3 3 5 6 6 6 6 6 6 7 7 8 8 7 7 8 8 8 8
Wind_Direction
203 223 229 245 247 254 312 309 29 47 57 56 54 63 70 59 74 99 117 114 115 120 126 125 123 123 124 126 130 134 135 135 131 127 125 122 119 116 113 110 105 101 96 91 87 85 83 82 82
218 229 235 245 244 268 290 292 22 50 63 76 74 74 78 73 85 107 112 116 118 124 132 127 125 124 124 124 127 133 136 138 135 131 129 127 125 123 120 116 111 106 101 97 93 90 90 87 85
239 241 252 251 249 233 216 268 39 49 83 80 79 70 70 89 101 112 121 120 118 120 121 124 127 125 124 124 125 129 133 134 136 134 133 132 131 130 128 125 121 115 108 104 100 99 99 97 94
241 238 245 261 273 276 272 345 16 358 81 97 97 87 85 89 111 122 126 119 118 122 123 125 126 125 124 124 124 126 129 131 133 134 134 135 135 133 133 132 131 127 122 119 113 111 109 110 108
243 259 254 265 277 283 310 347 349 328 72 79 92 98 98 101 116 128 127 125 130 125 123 127 126 124 124 125 126 127 128 130 133 136 138 139 141 142 141 140 141 139 134 130 129 125 126 130 131
251 260 270 273 276 284 306 344 343 8 24 102 105 112 108 119 127 133 133 137 132 126 125 128 128 128 128 129 129 131 134 136 139 142 145 147 151 154 156 157 155 150 146 146 147 146 151 154 165
263 280 282 284 287 285 291 336 349 19 331 66 118 114 120 128 133 136 136 134 127 124 129 137 138 135 135 136 137 138 141 145 148 153 158 163 171 175 176 176 173 170 168 169 172 174 179 185 193
263 283 282 281 277 274 280 305 2 16 24 87 127 119 138 136 143 136 134 130 126 129 136 142 145 146 152 152 151 151 155 159 162 167 174 183 196 198 198 197 193 187 185 188 194 198 202 207 212
259 265 272 286 304 314 332 320 342 325 18 72 98 115 131 142 146 141 137 128 123 126 135 144 141 151 160 160 158 164 171 175 177 183 191 201 220 214 207 211 188 189 193 198 206 213 218 221 224
248 263 279 310 321 319 319 314 307 305 38 64 94 107 132 142 143 145 140 132 124 126 129 124 129 136 149 151 150 174 179 173 192 183 184 205 232 251 205 176 182 195 203 208 212 218 226 229 235
258 271 299 309 310 307 298 297 292 321 48 59 103 129 138 135 140 139 134 129 122 126 119 118 116 124 128 119 150 152 154 151 184 174 174 198 233 268 271 154 174 198 215 223 216 216 226 229 234
264 279 288 292 298 292 288 294 343 64 109 117 108 119 128 134 133 133 127 127 126 121 112 116 120 113 84 80 104 124 121 142 160 151 173 163 157 248 273 83 173 207 217 227 232 223 226 238 250
271 276 283 284 277 277 297 327 16 79 118 130 138 139 145 138 130 121 110 112 118 112 107 101 106 101 93 72 16 73 75 92 104 104 132 127 172 232 301 307 279 260 236 214 223 231 241 245 249
302 311 312 318 310 297 285 306 12 100 132 139 139 140 133 121 117 112 110 111 119 124 117 110 109 106 101 100 74 29 57 73 63 105 119 91 64 56 345 271 246 258 252 215 216 222 230 234 248
300 302 319 310 288 276 286 347 354 183 133 134 127 115 106 101 103 107 112 118 127 121 108 108 110 106 103 94 65 88 64 85 90 124 103 73 46 38 301 274 260 282 282 253 240 248 244 242 239
298 292 284 275 274 287 7 279 281 213 149 124 115 111 101 89 100 101 109 111 105 101 96 90 103 112 111 103 68 41 22 49 67 62 88 83 55 347 283 279 284 303 287 263 242 233 244 253 255
292 279 275 275 258 303 31 318 296 260 175 138 122 116 108 101 101 106 110 100 95 97 101 98 88 97 101 107 106 118 115 47 41 73 87 85 41 334 303 309 346 287 293 293 299 317 301 288 283
292 291 312 312 296 110 113 125 284 259 215 153 129 127 121 121 115 114 112 109 104 102 106 108 100 94 105 106 101 93 135 183 145 126 118 91 31 12 349 307 10 323 289 298 309 300 284 276 270
310 326 340 323 322 101 144 160 186 204 195 133 133 126 122 121 120 118 119 120 119 119 121 121 112 109 103 81 38 27 36 338 263 145 115 108 33 13 324 322 333 306 301 304 289 287 295 281 263
312 322 335 306 316 14 109 107 121 141 150 144 143 135 132 130 129 130 132 133 133 133 131 133 128 124 120 98 72 166 348 308 309 48 108 140 80 354 303 33 335 326 325 299 284 282 282 293 292
309 313 313 287 287 70 75 68 119 158 176 150 152 151 151 147 145 147 147 144 140 139 141 127 113 105 76 62 332 4 17 286 313 348 66 73 22 339 318 322 314 327 315 311 334 304 290 288 295
306 321 309 291 276 253 191 193 192 186 188 176 165 161 160 150 150 152 151 147 143 144 137 123 122 113 87 37 15 354 332 330 325 341 35 25 330 298 292 292 301 321 321 319 311 336 338 307 293
319 349 344 340 331 288 231 190 175 193 198 186 174 171 164 157 154 155 153 148 148 151 145 137 132 123 107 28 9 337 335 339 346 354 345 338 299 270 260 254 264 305 299 305 318 318 309 303 295
314 344 3 3 353 302 252 222 170 182 192 186 176 174 172 162 157 155 158 151 150 155 151 143 136 132 136 281 344 342 342 340 330 320 311 308 303 302 303 300 27 311 305 312 310 302 293 280 280
280 291 332 348 301 256 251 206 139 161 170 170 166 167 173 166 162 164 165 159 165 166 151 139 138 144 165 230 5 9 354 322 292 288 310 325 319 324 15 12 2 331 315 301 289 287 281 280 280
264 260 261 283 253 237 219 151 129 134 144 155 159 164 172 174 171 176 171 166 169 162 154 143 132 133 152 224 72 10 316 303 323 4 349 324 312 322 342 329 306 295 292 292 297 297 284 277 274
281 273 272 292 303 310 271 122 126 135 144 156 162 166 178 181 177 176 168 170 162 154 141 128 122 126 122 2 5 242 241 277 308 313 291 295 322 313 335 333 316 301 290 284 284 279 281 281 275
287 297 301 297 300 309 348 232 156 158 161 164 169 173 176 178 177 167 160 158 143 135 125 123 121 124 160 263 276 310 16 321 303 298 308 304 297 296 298 297 298 296 291 284 279 278 277 279 274
261 276 292 305 312 326 345 283 173 177 171 172 176 179 180 180 171 157 146 134 129 138 141 138 143 161 191 217 213 295 288 300 308 300 295 299 303 304 298 293 291 290 287 284 282 279 277 276 276
286 273 273 279 298 296 291 138 147 166 172 175 176 173 171 165 156 148 140 133 143 152 147 144 158 189 194 199 189 224 256 283 293 297 308 312 306 299 295 292 291 289 290 290 289 289 290 286 283
Height
1506 1506 1506 1509 1506 1505 1506 1485 1463 1462 1462 1464 1465 1467 1473 1480 1487 1501 1502 1503 1504 1508 1513 1517 1521 1524 1527 1530 1533 1535 1538 1540 1542 1543 1545 1546 1547 1549 1550 1551 1552 1553 1554 1555 1556 1556 1557 1558 1559
1506 1506 1509 1506 1501 1514 1511 1484 1468 1464 1464 1465 1467 1470 1476 1485 1491 1497 1502 1505 1506 1509 1514 1518 1522 1525 1529 1531 1534 1537 1539 1541 1543 1545 1546 1547 1549 1550 1551 1552 1553 1554 1555 1556 1557 1558 1558 1559 1560
1506 1507 1507 1495 1492 1502 1498 1475 1465 1463 1464 1465 1468 1473 1480 1488 1494 1498 1503 1506 1508 1511 1515 1519 1523 1526 1529 1532 1535 1538 1540 1542 1544 1545 1547 1548 1549 1551 1552 1553 1554 1555 1556 1557 1558 1558 1559 1560 1561
1507 1507 1502 1491 1486 1478 1473 1467 1464 1463 1464 1465 1469 1478 1486 1490 1494 1499 1503 1506 1509 1513 1516 1520 1524 1527 1530 1533 1536 1538 1541 1543 1544 1546 1547 1549 1550 1551 1552 1554 1555 1555 1556 1558 1559 1559 1560 1561 1562
1508 1503 1494 1489 1482 1471 1466 1466 1465 1465 1465 1466 1470 1481 1490 1493 1495 1500 1504 1508 1511 1514 1517 1521 1525 1528 1531 1534 1536 1539 1541 1543 1545 1546 1548 1549 1550 1551 1553 1554 1555 1556 1557 1558 1559 1560 1561 1562 1563
1505 1496 1493 1488 1477 1468 1465 1466 1466 1466 1468 1468 1475 1483 1491 1496 1497 1501 1505 1509 1512 1514 1517 1522 1525 1529 1532 1534 1537 1539 1541 1543 1545 1546 1548 1549 1550 1551 1553 1554 1555 1556 1557 1558 1559 1560 1561 1562 1563
1504 1495 1492 1482 1475 1471 1465 1466 1467 1468 1471 1471 1475 1483 1492 1497 1499 1502 1506 1510 1513 1515 1518 1522 1526 1529 1532 1535 1537 1540 1542 1543 1545 1546 1548 1549 1550 1551 1553 1554 1555 1556 1557 1558 1559 1560 1560 1562 1563
1500 1496 1489 1479 1474 1470 1464 1466 1468 1471 1472 1474 1475 1482 1493 1496 1500 1504 1508 1511 1514 1517 1519 1523 1527 1530 1533 1535 1538 1540 1542 1543 1545 1546 1548 1549 1550 1551 1552 1553 1554 1555 1556 1557 1558 1559 1560 1561 1562
1498 1497 1491 1478 1472 1468 1466 1467 1471 1474 1473 1475 1475 1480 1490 1494 1500 1505 1509 1512 1515 1518 1521 1525 1528 1531 1534 1536 1538 1540 1542 1543 1544 1546 1547 1548 1549 1550 1552 1553 1554 1555 1555 1556 1557 1558 1559 1560 1561
1493 1492 1483 1474 1471 1470 1470 1471 1473 1476 1477 1480 1478 1485 1493 1496 1501 1505 1509 1512 1516 1519 1522 1526 1529 1532 1536 1538 1539 1540 1541 1542 1544 1545 1546 1548 1549 1550 1551 1552 1553 1553 1554 1555 1556 1557 1558 1559 1560
1486 1484 1479 1476 1475 1474 1473 1474 1474 1477 1484 1486 1484 1488 1493 1498 1502 1506 1509 1513 1517 1520 1523 1526 1529 1533 1536 1538 1539 1541 1542 1542 1543 1544 1546 1547 1548 1549 1550 1550 1551 1552 1552 1553 1554 1555 1555 1557 1558
1484 1481 1480 1478 1477 1476 1475 1475 1477 1481 1487 1487 1490 1491 1496 1499 1502 1506 1510 1514 1518 1521 1525 1527 1529 1532 1535 1537 1539 1541 1541 1542 1543 1544 1545 1545 1546 1547 1548 1548 1549 1550 1551 1551 1552 1553 1553 1555 1556
1481 1479 1479 1478 1477 1476 1477 1478 1481 1486 1488 1488 1493 1495 1497 1500 1502 1506 1509 1514 1518 1521 1524 1526 1529 1531 1533 1535 1538 1539 1540 1541 1543 1543 1544 1544 1545 1546 1546 1546 1547 1548 1549 1549 1550 1550 1551 1552 1553
1481 1480 1479 1479 1477 1477 1478 1480 1482 1489 1489 1490 1492 1495 1497 1499 1502 1505 1511 1514 1518 1521 1524 1526 1528 1530 1532 1535 1537 1538 1539 1540 1541 1541 1542 1542 1543 1544 1544 1545 1546 1546 1547 1548 1548 1548 1548 1549 1549
1481 1482 1483 1481 1480 1479 1479 1486 1487 1489 1489 1491 1493 1494 1497 1499 1503 1508 1513 1515 1518 1521 1523 1526 1528 1530 1532 1534 1535 1538 1538 1539 1539 1541 1541 1542 1542 1542 1543 1544 1544 1544 1545 1545 1545 1545 1546 1546 1547
1480 1485 1491 1485 1481 1482 1486 1499 1490 1490 1492 1493 1495 1498 1500 1504 1506 1511 1514 1516 1518 1520 1523 1526 1529 1530 1532 1533 1535 1536 1537 1538 1539 1540 1540 1540 1541 1541 1542 1542 1542 1542 1542 1543 1543 1543 1543 1543 1543
1485 1494 1495 1487 1481 1483 1489 1500 1495 1491 1493 1495 1498 1501 1503 1507 1508 1511 1514 1516 1518 1520 1523 1527 1529 1530 1532 1533 1535 1535 1537 1537 1538 1539 1539 1539 1540 1540 1541 1540 1540 1540 1540 1540 1540 1540 1540 1540 1540
1487 1485 1488 1488 1480 1484 1490 1501 1500 1495 1495 1496 1499 1503 1505 1509 1511 1513 1515 1517 1519 1521 1524 1527 1529 1530 1532 1534 1535 1536 1536 1537 1537 1538 1538 1538 1538 1539 1539 1539 1538 1538 1538 1537 1537 1537 1536 1536 1537
1473 1478 1484 1483 1477 1486 1494 1499 1499 1494 1496 1496 1500 1503 1506 1509 1512 1515 1517 1519 1521 1523 1525 1527 1529 1531 1532 1533 1534 1535 1536 1536 1537 1537 1536 1537 1537 1537 1537 1537 1536 1536 1535 1535 1534 1534 1533 1533 1534
1473 1480 1484 1481 1477 1484 1494 1497 1496 1495 1495 1497 1500 1503 1506 1510 1513 1516 1518 1520 1522 1524 1526 1528 1529 1531 1532 1533 1534 1534 1535 1535 1536 1536 1535 1535 1535 1535 1535 1534 1533 1533 1533 1532 1532 1531 1530 1530 1531
1475 1479 1481 1483 1480 1484 1495 1503 1500 1497 1497 1499 1501 1503 1506 1509 1513 1516 1518 1520 1522 1525 1526 1528 1529 1531 1531 1532 1533 1534 1534 1534 1535 1535 1534 1533 1533 1532 1532 1531 1531 1530 1530 1530 1529 1529 1528 1528 1528
1478 1471 1474 1479 1486 1496 1496 1513 1505 1498 1497 1498 1500 1502 1505 1508 1512 1515 1518 1520 1523 1525 1526 1528 1529 1530 1530 1531 1531 1532 1532 1533 1533 1533 1532 1531 1530 1530 1530 1529 1528 1527 1527 1526 1526 1527 1525 1525 1525
1472 1471 1476 1481 1489 1496 1494 1503 1504 1496 1497 1495 1497 1501 1503 1507 1511 1514 1517 1520 1523 1524 1526 1527 1527 1529 1529 1530 1530 1530 1530 1530 1530 1529 1529 1528 1528 1528 1527 1526 1525 1524 1523 1523 1523 1522 1522 1522 1522
1468 1475 1483 1493 1503 1514 1495 1496 1503 1492 1491 1491 1494 1499 1502 1506 1510 1513 1517 1520 1522 1524 1525 1526 1526 1527 1528 1528 1528 1528 1528 1528 1527 1527 1526 1526 1526 1525 1525 1524 1522 1521 1520 1520 1519 1518 1518 1518 1518
1472 1486 1509 1521 1529 1521 1488 1488 1492 1481 1482 1486 1492 1497 1501 1505 1509 1513 1516 1519 1521 1523 1525 1525 1526 1526 1527 1527 1527 1527 1526 1525 1525 1525 1524 1524 1523 1523 1522 1520 1519 1518 1517 1516 1516 1515 1514 1514 1514
1471 1479 1501 1515 1516 1504 1484 1486 1481 1475 1479 1485 1490 1495 1500 1504 1507 1511 1514 1516 1519 1521 1523 1524 1524 1525 1526 1526 1525 1525 1524 1523 1523 1522 1522 1521 1520 1520 1519 1517 1516 1515 1514 1513 1512 1511 1510 1510 1509
1470 1471 1468 1482 1489 1500 1491 1481 1478 1475 1479 1484 1489 1494 1499 1502 1505 1508 1511 1514 1516 1519 1521 1522 1523 1524 1524 1524 1524 1523 1522 1521 1521 1520 1519 1519 1518 1517 1516 1514 1512 1511 1510 1509 1508 1507 1506 1506 1505
1465 1464 1467 1479 1494 1504 1503 1493 1487 1481 1480 1482 1486 1490 1495 1499 1502 1505 1509 1512 1515 1517 1519 1521 1521 1522 1522 1522 1522 1522 1521 1520 1519 1517 1516 1515 1514 1513 1511 1510 1508 1507 1506 1505 1504 1503 1502 1502 1501
1470 1469 1468 1470 1474 1496 1515 1506 1476 1476 1476 1478 1483 1487 1491 1495 1499 1503 1507 1511 1514 1516 1518 1519 1520 1520 1520 1520 1519 1519 1518 1517 1516 1515 1514 1512 1511 1509 1507 1506 1505 1503 1502 1501 1500 1499 1498 1497 1496
1464 1466 1468 1482 1482 1476 1488 1493 1466 1468 1471 1475 1479 1484 1488 1493 1497 1501 1505 1509 1512 1515 1516 1517 1518 1519 1518 1518 1517 1517 1516 1515 1513 1512 1511 1509 1507 1506 1504 1502 1501 1499 1498 1497 1496 1494 1493 1492 1491